Location: Newark
(49.8500°N, 20.8167°E)
Time: 09:09:03
(UTC+00:00)

OTV 5 (USA 277) - Visible Passes

Search period start: 20 October 2019 00:00
Search period end: 30 October 2019 00:00
Orbit: 310 x 324 km, 54.5° (Epoch: 17 October)

Date Brightness Start Highest point End Pass type
(mag) Time Alt. Az. Time Alt. Az. Time Alt. Az.
20 Oct ? 03:34:07 18° SSW 03:34:07 18° SSW 03:35:27 10° S visible
28 Oct ? 17:07:44 10° S 17:07:46 10° S 17:07:46 10° S visible
29 Oct ? 17:21:23 10° SSW 17:22:16 17° SSW 17:22:16 17° SSW visible
